Weather reports worldwide

Advertisment
Dieppe, France (7040): temperature & dewpoint: 10.12.2019 02:00:00 - 16.12.2019 02:00:00 (CET)Dieppe, France (7040): temperature 5cm: 10.12.2019 02:00:00 - 16.12.2019 02:00:00 (CET)Dieppe, France (7040): wind speed & gusts: 10.12.2019 02:00:00 - 16.12.2019 02:00:00 (CET)Dieppe, France (7040): wind direction: 10.12.2019 02:00:00 - 16.12.2019 02:00:00 (CET)Dieppe, France (7040): reduced air pressure: 10.12.2019 02:00:00 - 16.12.2019 02:00:00 (CET)Dieppe, France (7040): visibility: 10.12.2019 02:00:00 - 16.12.2019 02:00:00 (CET)Dieppe, France (7040): precipitation: 10.12.2019 02:00:00 - 16.12.2019 02:00:00 (CET)
Date & Time tt [°C] td [°C] tt 5cm [°C] ff [km/h] ff [kn] fx [km/h] fx [kn] dd ppp [hPa] vv [km] rr [mm]
16.12.2019 02:00:00 8,0 5,3 7,2 18 10 35 19 S 1003,6 - 0,0
16.12.2019 01:00:00 7,7 5,2 7,0 18 10 33 18 S 1003,4 10 0,0
16.12.2019 00:00:00 7,5 5,0 6,9 17 9 33 18 S 1003,6 - 0,0
15.12.2019 23:00:00 7,4 4,5 6,6 13 7 28 15 S 1003,8 - 0,0
15.12.2019 22:00:00 7,1 4,2 6,5 14 7 30 16 S 1004,3 - 0,0
15.12.2019 21:00:00 7,2 4,2 6,6 14 8 31 17 S 1004,2 - 0,0
15.12.2019 20:00:00 7,1 3,7 6,5 15 8 31 17 S 1004,2 - 0,0
15.12.2019 19:00:00 7,3 3,2 6,6 16 8 32 17 S 1004,0 15 0,0
15.12.2019 18:00:00 7,7 2,8 7,0 16 8 33 18 S 1004,2 - 0,0
15.12.2019 17:00:00 8,5 2,5 7,9 19 10 38 21 S 1003,9 - 0,0
15.12.2019 16:00:00 9,3 2,6 9,3 19 11 46 25 SSW 1003,2 12 0,0
15.12.2019 15:00:00 9,9 3,0 9,4 21 11 45 25 SSW 1003,0 - 0,0
15.12.2019 14:00:00 9,4 2,7 9,1 21 11 48 26 SSW 1002,8 - 0,0
15.12.2019 13:00:00 9,6 2,7 10,3 24 13 55 30 SSW 1002,5 8 0,0
15.12.2019 12:00:00 8,9 2,7 9,4 23 12 50 27 SSW 1002,0 - 0,0
15.12.2019 11:00:00 8,1 3,2 7,2 23 12 47 25 SSW 1001,7 - 0,0
15.12.2019 10:00:00 7,3 3,7 6,6 19 10 40 21 SSW 1000,9 - 0,0
15.12.2019 09:00:00 7,1 4,2 6,5 20 11 38 21 SSW 1000,3 - 0,0
15.12.2019 08:00:00 7,2 4,3 6,4 18 10 43 23 SSW 999,4 - 0,0
15.12.2019 07:00:00 7,4 4,4 6,2 20 11 44 24 SSW 998,4 8 0,0
15.12.2019 06:00:00 7,3 4,8 6,2 23 12 69 37 SW 997,2 - 0,6
15.12.2019 05:00:00 8,3 6,1 7,1 41 22 74 40 WSW 996,1 - 0,2
15.12.2019 04:00:00 8,1 6,2 7,1 42 23 98 53 WSW 995,1 8 1,0
15.12.2019 03:00:00 10,0 7,6 8,5 35 19 63 34 SW 993,6 - 0,4
15.12.2019 02:00:00 10,4 8,3 8,5 26 14 53 29 SSW 992,5 - 0,2
15.12.2019 01:00:00 9,8 7,4 8,1 26 14 48 26 S 992,9 10 0,2
15.12.2019 00:00:00 8,5 6,6 7,6 22 12 42 23 S 993,7 - 0,0
14.12.2019 23:00:00 8,6 4,6 7,6 21 11 39 21 S 994,8 - 0,0
14.12.2019 22:00:00 7,9 4,1 7,2 18 10 35 19 S 996,4 10 0,0
14.12.2019 21:00:00 7,9 3,7 7,1 18 10 40 22 S 997,7 - 0,0
14.12.2019 20:00:00 7,7 3,5 7,2 15 8 30 16 S 998,7 - 0,0
14.12.2019 19:00:00 8,4 3,8 7,6 16 9 39 21 S 999,2 12 0,0
14.12.2019 18:00:00 8,6 4,4 7,6 16 9 38 20 SSW 999,7 - 0,0
14.12.2019 17:00:00 9,3 2,6 8,4 24 13 50 27 SW 999,6 - 0,0
14.12.2019 16:00:00 9,8 4,6 9,2 22 12 68 37 WSW 999,0 9 0,0
14.12.2019 15:00:00 10,4 3,7 9,9 40 22 79 43 WSW 997,9 - 0,0
14.12.2019 14:00:00 10,3 5,1 9,7 39 21 71 39 W 997,3 - 0,0
14.12.2019 13:00:00 9,5 5,9 8,1 32 18 69 38 SW 996,3 10 0,0
14.12.2019 12:00:00 8,3 5,4 6,8 31 17 68 37 SW 995,6 - 0,2
14.12.2019 11:00:00 8,6 4,4 7,4 27 15 60 32 SSW 995,1 - 0,0
14.12.2019 10:00:00 8,2 4,6 6,6 20 11 60 32 SSW 995,5 - 0,2
14.12.2019 09:00:00 8,6 5,3 5,6 22 12 79 42 W 995,0 - 1,2
14.12.2019 08:00:00 9,8 4,4 8,9 33 18 85 46 W 993,9 - 0,0
14.12.2019 07:00:00 9,5 3,2 7,5 53 28 90 49 W 992,9 9 0,0
14.12.2019 06:00:00 8,2 5,5 6,3 37 20 105 57 W 991,3 - 1,4
14.12.2019 05:00:00 9,5 5,5 8,9 36 19 80 43 W 989,7 - 0,0
14.12.2019 04:00:00 9,3 5,8 8,7 46 25 92 50 WNW 988,5 - 0,2
14.12.2019 03:00:00 10,5 9,1 9,5 42 23 86 47 WSW 984,3 - 0,2
14.12.2019 02:00:00 11,0 7,7 9,1 50 27 99 54 WSW 983,2 - 0,0
14.12.2019 01:00:00 11,3 7,8 7,9 44 24 81 44 WSW 982,7 - 0,0
14.12.2019 00:00:00 8,4 7,5 6,5 26 14 50 27 S 983,1 - 0,4
13.12.2019 23:00:00 7,0 6,3 6,3 14 8 33 18 S 985,3 - 2,0
13.12.2019 22:00:00 7,2 5,7 6,1 19 10 36 20 SSW 986,8 - 1,0
13.12.2019 21:00:00 7,0 5,5 6,1 17 9 37 20 S 988,1 - 0,6
13.12.2019 20:00:00 8,5 4,7 6,7 24 13 57 31 SW 989,1 - 0,2
13.12.2019 19:00:00 9,2 2,7 8,4 26 14 56 30 WSW 988,9 - 0,0
13.12.2019 18:00:00 9,0 3,4 8,4 30 16 70 38 W 989,7 - 0,0
13.12.2019 17:00:00 9,1 3,5 8,5 34 19 72 39 W 989,2 - 0,0
13.12.2019 16:00:00 9,1 3,5 8,8 43 23 72 39 W 988,2 9 0,0
13.12.2019 15:00:00 9,2 3,8 9,1 44 24 79 43 W 987,5 - 0,0
13.12.2019 14:00:00 9,1 2,9 8,9 44 24 82 45 WNW 986,3 - 0,0
13.12.2019 13:00:00 9,2 3,2 8,9 49 26 79 43 WNW 985,6 10 0,0
13.12.2019 12:00:00 8,9 3,5 8,8 51 27 87 47 WNW 984,6 - 0,0
13.12.2019 11:00:00 8,9 3,5 8,6 54 29 86 47 WNW 983,2 - 0,0
13.12.2019 10:00:00 9,0 4,4 6,3 51 28 96 52 WNW 981,4 - 0,4
13.12.2019 09:00:00 9,0 3,6 8,6 56 30 97 52 WNW 979,6 - 0,0
13.12.2019 08:00:00 8,9 4,3 8,5 50 27 94 51 WNW 978,1 - 0,0
13.12.2019 07:00:00 9,0 3,6 8,4 52 28 95 52 WNW 976,8 10 0,0
13.12.2019 06:00:00 9,2 4,4 8,4 55 30 94 51 WNW 975,7 - 0,0
13.12.2019 05:00:00 9,5 3,9 7,8 61 33 95 51 WNW 975,2 - 0,0
13.12.2019 04:00:00 9,0 5,4 6,9 50 27 82 44 W 974,7 - 1,0
13.12.2019 03:00:00 8,7 6,5 6,5 32 17 74 40 WSW 974,0 - 0,6
13.12.2019 02:00:00 9,0 7,4 7,6 29 16 85 46 SW 974,9 - 1,2
13.12.2019 01:00:00 8,5 6,3 7,6 18 10 53 28 SSW 975,7 10 3,8
13.12.2019 00:00:00 8,8 7,6 7,9 23 12 42 23 S 978,0 - 0,6
12.12.2019 23:00:00 9,0 7,1 7,8 18 10 40 22 SSW 979,7 - 0,0
12.12.2019 22:00:00 9,0 7,6 7,7 17 9 38 21 SSW 981,2 14 0,2
12.12.2019 21:00:00 8,5 7,3 7,1 17 9 35 19 SSW 982,4 - 0,0
12.12.2019 20:00:00 7,7 6,9 6,7 18 10 56 30 S 982,9 - 4,7
12.12.2019 19:00:00 7,6 6,4 6,7 28 15 62 34 S 983,3 - 0,6
12.12.2019 18:00:00 7,5 6,0 6,2 31 17 67 36 S 984,0 - 2,4
12.12.2019 17:00:00 6,9 5,7 6,1 26 14 64 35 S 985,6 - 1,0
12.12.2019 16:00:00 6,8 5,3 6,2 24 13 59 32 S 987,6 12 0,0
12.12.2019 15:00:00 6,2 4,7 5,5 23 12 61 33 SSE 989,5 - 0,0
12.12.2019 14:00:00 6,0 4,3 5,7 26 14 53 29 S 991,6 - 0,0
12.12.2019 13:00:00 5,6 3,8 5,7 23 13 58 31 S 994,0 18 0,0
12.12.2019 12:00:00 5,3 3,3 4,7 26 14 54 29 S 996,0 - 0,0
12.12.2019 11:00:00 4,7 2,6 3,5 22 12 42 23 S 998,3 - -
12.12.2019 10:00:00 4,1 2,3 3,0 21 12 40 22 S 1000,2 18 0,0
12.12.2019 09:00:00 3,4 1,8 2,7 18 10 36 20 S 1001,4 - 0,0
12.12.2019 08:00:00 3,2 1,6 2,4 20 11 36 20 S 1002,6 - 0,0
12.12.2019 07:00:00 3,1 1,6 2,4 15 8 35 19 S 1003,2 18 0,0
12.12.2019 06:00:00 4,1 2,6 3,4 18 10 32 18 S 1004,2 - 0,0
12.12.2019 05:00:00 4,2 2,7 3,3 13 7 25 14 S 1004,7 - 0,6
12.12.2019 04:00:00 4,7 2,4 3,3 13 7 32 18 SSW 1005,1 - 0,8
12.12.2019 03:00:00 7,7 2,0 6,9 18 10 41 22 WNW 1005,3 - 0,0
12.12.2019 02:00:00 7,7 2,4 7,1 19 11 41 22 WNW 1005,2 - 0,0
12.12.2019 01:00:00 7,8 2,0 6,9 26 14 44 24 NW 1005,3 12 0,0
12.12.2019 00:00:00 7,6 3,1 4,6 28 15 39 21 NW 1005,1 - 0,2
11.12.2019 23:00:00 5,5 4,0 4,8 13 7 26 14 SSW 1004,9 - 0,0
11.12.2019 22:00:00 5,6 4,1 4,6 12 7 33 18 SSW 1004,9 12 0,0
11.12.2019 21:00:00 5,5 3,5 4,7 16 8 31 17 SSW 1004,7 - 0,2
11.12.2019 20:00:00 5,9 4,1 4,8 16 8 29 16 SW 1004,8 - 0,4
11.12.2019 19:00:00 5,9 3,9 4,6 15 8 29 16 S 1004,7 12 0,2
11.12.2019 18:00:00 5,7 4,2 4,8 25 13 47 26 SW 1005,1 - 1,4
11.12.2019 17:00:00 8,1 3,5 7,5 18 10 37 20 SSW 1004,6 - 0,0
11.12.2019 16:00:00 8,6 4,0 8,1 15 8 34 19 SSW 1005,3 12 0,0
11.12.2019 15:00:00 9,0 4,6 8,6 14 7 35 19 SSW 1005,6 - 0,0
11.12.2019 14:00:00 8,8 5,0 8,2 16 8 40 21 SSW 1006,3 - 0,0
11.12.2019 13:00:00 7,9 4,7 8,0 17 9 35 19 SSW 1007,5 12 0,0
11.12.2019 12:00:00 7,9 5,2 8,0 15 8 28 15 SSW 1008,3 - 0,0
11.12.2019 11:00:00 7,3 5,6 6,1 12 7 28 15 SSW 1009,4 - 0,0
11.12.2019 10:00:00 6,5 5,0 5,8 12 7 22 12 S 1009,5 8 0,0
11.12.2019 09:00:00 7,1 4,4 5,6 14 8 26 14 SW 1009,7 - 0,0
11.12.2019 08:00:00 6,9 5,5 6,1 10 5 21 12 S 1009,9 - 0,0
11.12.2019 07:00:00 7,4 5,9 6,5 11 6 21 12 SSW 1010,1 - 0,0
11.12.2019 06:00:00 7,7 6,6 7,0 11 6 31 17 SSW 1010,3 - 0,8
11.12.2019 05:00:00 8,2 6,8 7,4 14 8 27 14 SW 1010,7 - 0,2
11.12.2019 04:00:00 8,5 7,3 7,7 11 6 24 13 SSW 1011,0 - 0,2
11.12.2019 03:00:00 8,5 7,0 7,7 13 7 27 15 SW 1011,4 - 0,2
11.12.2019 02:00:00 8,8 7,9 8,4 13 7 29 15 WSW 1011,7 - 0,8
11.12.2019 01:00:00 8,9 8,3 8,2 16 9 41 22 W 1012,0 5 2,0
11.12.2019 00:00:00 8,9 7,8 8,2 23 13 56 30 S 1011,1 - 0,2
10.12.2019 23:00:00 9,7 6,6 9,4 32 17 74 40 S 1010,6 - 0,0
10.12.2019 22:00:00 9,7 6,2 8,6 32 17 71 38 S 1010,8 20 0,0
10.12.2019 21:00:00 9,0 5,6 8,1 31 17 62 34 S 1011,6 - 0,0
10.12.2019 20:00:00 8,5 5,4 8,1 32 17 71 38 S 1012,5 - 0,0
10.12.2019 19:00:00 8,5 4,9 8,0 34 19 68 37 S 1013,4 - 0,0
10.12.2019 18:00:00 8,2 4,6 7,8 31 17 64 35 S 1013,9 - 0,0
10.12.2019 17:00:00 8,2 4,4 7,9 31 17 61 33 S 1015,0 - 0,0
10.12.2019 16:00:00 8,1 3,9 7,7 28 15 68 37 S 1015,9 12 0,0
10.12.2019 15:00:00 8,0 3,5 7,9 26 14 58 31 S 1017,4 - 0,0
10.12.2019 14:00:00 7,9 3,0 7,9 29 16 58 31 S 1019,0 - 0,0
10.12.2019 13:00:00 7,5 2,6 6,6 22 12 46 25 S 1020,7 12 0,0
10.12.2019 12:00:00 6,4 2,3 6,1 21 11 46 25 S 1022,2 - 0,0
10.12.2019 11:00:00 6,0 2,1 4,9 18 10 40 21 S 1023,6 - 0,0
10.12.2019 10:00:00 4,5 1,3 3,3 18 10 34 18 S 1024,0 16 0,0
10.12.2019 09:00:00 3,4 1,0 2,1 14 8 32 18 S 1024,6 - 0,0
10.12.2019 08:00:00 2,7 0,6 2,1 14 8 28 15 S 1025,8 - 0,0
10.12.2019 07:00:00 2,9 0,5 2,2 14 7 25 13 S 1026,0 - 0,0
10.12.2019 06:00:00 2,8 0,4 1,5 13 7 24 13 SSE 1026,3 - 0,0
10.12.2019 05:00:00 1,9 0,1 0,9 14 8 22 12 SSE 1026,9 - 0,0
10.12.2019 04:00:00 2,6 0,2 1,4 11 6 21 12 SSE 1027,0 7 0,0
10.12.2019 03:00:00 2,5 -0,3 1,8 11 6 19 10 SSE 1027,2 - 0,0
10.12.2019 02:00:00 3,4 -0,1 2,5 9 5 15 8 SSE 1026,7 - 0,0

tt = temperature
td = dewpoint
tt 5cm = temperature 5cm
ff = wind speed
fx = gusts
dd = wind direction
ppp = reduced air pressure
vv = visibility
rr = precipitation

Next stations